TimeCDT,TemperatureF,Dew PointF,Humidity,Sea Level PressureIn,VisibilityMPH,Wind Direction,Wind SpeedMPH,Gust SpeedMPH,PrecipitationIn,Events,Conditions,WindDirDegrees,DateUTC
12:53 AM,81.0,60.1,49,29.92,10.0,SE,8.1,-,N/A,,Clear,130,2013-08-12 05:53:00
1:53 AM,79.0,60.1,52,29.92,10.0,SE,5.8,-,N/A,,Clear,130,2013-08-12 06:53:00
2:53 AM,77.0,60.1,56,29.93,10.0,ESE,4.6,-,N/A,,Clear,110,2013-08-12 07:53:00
3:53 AM,77.0,61.0,58,29.93,10.0,SE,6.9,-,N/A,,Clear,140,2013-08-12 08:53:00
4:53 AM,75.0,61.0,62,29.93,10.0,SE,6.9,-,N/A,,Clear,140,2013-08-12 09:53:00
5:53 AM,73.9,62.1,66,29.94,10.0,SE,9.2,-,N/A,,Clear,130,2013-08-12 10:53:00
6:53 AM,73.0,63.0,71,29.94,10.0,ESE,8.1,-,N/A,,Clear,120,2013-08-12 11:53:00
7:53 AM,73.0,64.0,73,29.95,10.0,SE,9.2,-,N/A,,Clear,130,2013-08-12 12:53:00
8:53 AM,77.0,64.9,66,29.96,10.0,SE,12.7,-,N/A,,Clear,130,2013-08-12 13:53:00
9:53 AM,80.1,64.9,60,29.97,10.0,SSE,10.4,-,N/A,,Clear,160,2013-08-12 14:53:00
10:53 AM,84.9,64.0,49,29.96,10.0,South,9.2,-,N/A,,Clear,170,2013-08-12 15:53:00
11:53 AM,87.1,61.0,41,29.96,10.0,South,10.4,-,N/A,,Clear,190,2013-08-12 16:53:00
12:53 PM,91.0,57.9,33,29.94,10.0,South,9.2,16.1,N/A,,Clear,180,2013-08-12 17:53:00
1:53 PM,93.0,57.9,31,29.92,10.0,SE,10.4,-,N/A,,Partly Cloudy,140,2013-08-12 18:53:00
2:53 PM,93.9,55.9,28,29.90,10.0,SW,9.2,-,N/A,,Clear,230,2013-08-12 19:53:00
3:53 PM,93.9,55.0,27,29.87,10.0,East,6.9,-,N/A,,Clear,100,2013-08-12 20:53:00
4:53 PM,95.0,54.0,25,29.85,10.0,Variable,4.6,-,N/A,,Partly Cloudy,0,2013-08-12 21:53:00
5:53 PM,97.0,54.0,23,29.83,10.0,East,8.1,17.3,N/A,,Scattered Clouds,90,2013-08-12 22:53:00
6:53 PM,95.0,55.0,26,29.83,10.0,ESE,12.7,18.4,N/A,,Partly Cloudy,110,2013-08-12 23:53:00
7:53 PM,93.0,55.0,28,29.83,10.0,SE,12.7,-,N/A,,Clear,140,2013-08-13 00:53:00
8:53 PM,91.0,55.0,29,29.84,10.0,SE,11.5,18.4,N/A,,Clear,140,2013-08-13 01:53:00
9:53 PM,88.0,57.0,35,29.86,10.0,SSE,12.7,-,N/A,,Clear,150,2013-08-13 02:53:00
10:53 PM,86.0,57.9,38,29.88,10.0,SSE,9.2,-,N/A,,Clear,160,2013-08-13 03:53:00
11:53 PM,84.0,57.9,41,29.89,10.0,SSE,12.7,-,N/A,,Clear,160,2013-08-13 04:53:00